Home > Weather > Charlotte Amalie > Past weeks

Flag for US Virgin Islands Weather for the Past 2 Weeks in Charlotte Amalie, US Virgin Islands

Now
79 °F

Mostly cloudy.


Feels Like: 82 °F
Forecast: 78 / 83 °F
Wind: 16 mph from Southeast

Location: Cyril E. King International Airport

Current Time: Feb 7, 2016 at 2:27:05 AM

Latest Report: Feb 7, 2016 at 1:53 AM


Visibility: 10 mi

Pressure: 30.04 "Hg

Humidity: 79%

Dew point: 72 °F

Location of Charlotte AmalieLocation

Historic Weather in Charlotte Amalie — Graph

°F

Charlotte Amalie Temperature Yesterday

Maximum temperature yesterday: 83 °F (at 12:53 PM)
Minimum temperature yesterday: 75 °F (at 5:53 AM)
Average temperature yesterday: 79 °F

High & Low Weather Summary for the Past Weeks

 TemperatureHumidityPressure
High86 °F (Jan 26, 12:53 PM)97% (Jan 30, 7:53 AM)30.18 "Hg (Jan 30, 7:53 AM)
Low71 °F (Feb 5, 6:53 AM)51% (Jan 26, 11:53 AM)29.89 "Hg (Feb 4, 3:53 PM)
Average78 °F74%30.03 "Hg
* Reported Jan 23 1:20 AM — Feb 7 1:20 AM, Charlotte Amalie, Weather by CustomWeather, © 2016

Note: Actual official high and low records may vary slightly from our data, if they occured in-between our weather recording intervals... More about our weather records

Advertising

Charlotte Amalie Weather History for the Previous 24 Hours

 ConditionsComfort  
Time TempWeatherWind HumidityBarometerVisibility
1:20 AM
Sun, Feb 7
79 °FPartly cloudy.16 mph84%30.05 "Hg10 mi
12:53 AM78 °FOvercast.10 mph93%30.06 "Hg10 mi
12:23 AM75 °FRain. Fog.5 mph94%30.07 "Hg5 mi
12:02 AM73 °FHeavy rain. Fog.20 mph88%30.08 "Hg2 mi
11:45 PM
Sat, Feb 6
77 °FPassing clouds.13 mph79%30.08 "Hg10 mi
10:53 PM78 °FPassing clouds.5 mph79%30.09 "Hg10 mi
9:53 PM79 °FClear.7 mph77%30.09 "Hg10 mi
9:16 PM79 °FPartly cloudy.3 mph79%30.08 "Hg10 mi
8:53 PM78 °FOvercast.3 mph82%30.08 "Hg10 mi
7:53 PM77 °FPassing clouds.3 mph85%30.06 "Hg10 mi
7:15 PM75 °FMostly cloudy.8 mph88%30.05 "Hg10 mi
6:53 PM76 °FMostly cloudy.6 mph88%30.05 "Hg10 mi
4:53 PM81 °FSunny.13 mph74%30.01 "Hg10 mi
3:53 PM81 °FPassing clouds.13 mph74%30.01 "Hg10 mi
2:53 PM83 °FPassing clouds.12 mph70%30.01 "Hg10 mi
1:53 PM83 °FSunny.12 mph68%30.03 "Hg10 mi
12:53 PM83 °FSunny.12 mph68%30.06 "Hg10 mi
11:53 AM82 °FPassing clouds.10 mph72%30.09 "Hg10 mi
10:53 AM82 °FSunny.10 mph67%30.10 "Hg10 mi
9:53 AM80 °FSunny.9 mph71%30.11 "Hg10 mi
8:53 AM80 °FPassing clouds.10 mph69%30.09 "Hg10 mi
7:53 AM78 °FSunny.9 mph74%30.06 "Hg10 mi
6:53 AM77 °FSunny.8 mph74%30.03 "Hg10 mi
5:53 AM75 °FClear.8 mph79%30.02 "Hg10 mi
4:53 AM77 °FClear.9 mph74%30.00 "Hg10 mi
3:53 AM77 °FPassing clouds.9 mph77%30.01 "Hg10 mi
2:53 AM77 °FClear.12 mph74%30.01 "Hg10 mi
Weather by CustomWeather, © 2016

See weather overviewHow to use our weather pages